Regional Weather Roundup
Issued by NWS

Home | Current Version | Previous Version | Graphics & Text | Print | Product List | Glossary On
Versions: 1 2 3 4 5 6 7 8 9 10 11 12 13 14 15 16 17 18 19 20 21 22 23 24 25 26 27 28 29 30 31 32 33 34 35 36 37 38 39 40 41 42 43 44 45 46 47 48 49 50
000
ASUS43 KDMX 302103
RWRIA

WEATHER ROUNDUP FOR IOWA
NATIONAL WEATHER SERVICE DES MOINES IA
400 PM CDT FRI SEP 30 2016

NOTE: "FAIR" INDICATES FEW OR NO CLOUDS BELOW 12,000 FEET WITH NO
SIGNIFICANT WEATHER AND/OR OBSTRUCTIONS TO VISIBILITY.

* - THESE STATIONS ARE NOT NWS STATIONS...THUS NOT UNDER NWS
QUALITY CONTROL.  THEY ALSO DO NOT REPORT WEATHER SUCH
AS PRECIPITATION OR FOG.

IAZ001>003-012>014-020>022-031>034-043>046-302200-
   NORTHWEST IOWA

CITY           SKY/WX    TMP DP  RH WIND       PRES   REMARKS
CARROLL *      PTSUNNY   70  55  60 VRB6G15   30.18F
CHEROKEE *     SUNNY     73  47  40 E9        30.19F
DENISON *      SUNNY     72  50  46 NE10G18   30.16F
LE MARS *      SUNNY     73  46  38 E7G14     30.20F HAZE
SHELDON *      SUNNY     73  45  35 E10       30.19F
SIOUX CITY     SUNNY     75  47  36 SE8       30.18F
SPENCER        SUNNY     72  49  44 E8        30.20F
STORM LAKE *   SUNNY     72  50  46 E8G14     30.20F
$$

IAZ055>058-069>071-079>083-090>094-302200-
   SOUTHWEST IOWA

CITY           SKY/WX    TMP DP  RH WIND       PRES   REMARKS
ATLANTIC *     SUNNY     70  54  56 E10G20    30.17F
AUDUBON *      MOSUNNY   72  57  60 E8        30.19F
CLARINDA *       N/A     73  50  43 MISG      30.17F
COUNCIL BLFS * SUNNY     73  46  38 NE6G14    30.17F
CRESTON *      CLOUDY    64  54  68 NE12      30.19S
HARLAN  *      SUNNY     73  50  43 E9G20     30.20F
LAMONI         CLOUDY    64  55  72 NE8       30.17F
RED OAK *      SUNNY     73  50  43 N13       30.16F
SHENANDOAH *   SUNNY     73  46  38 NE12      30.16F
$$

IAZ047>049-059>061-072>074-084-302200-
   CENTRAL IOWA

CITY           SKY/WX    TMP DP  RH WIND       PRES   REMARKS
AMES           CLOUDY    65  57  75 N10       30.18F
ANKENY *         N/A    N/A N/A N/A MISG        N/A
BOONE *        CLOUDY    64  55  72 NE8G15    30.18F
CHARITON *       N/A     63  54  72 N8        30.16F
DES MOINES     CLOUDY    66  55  67 N9        30.17F
GRINNELL*      CLOUDY    63  54  74 N8        30.18S
KNOXVILLE *    CLOUDY    64  54  68 N6        30.15F
MARSHALLTOWN   CLOUDY    63  56  78 N10       30.18F
NEWTON *       CLOUDY    63  55  77 N10       30.17S
PELLA *        CLOUDY    64  55  70 N7        30.18S
PERRY *        CLOUDY    66  57  71 NE8       30.18F HAZE
$$

IAZ004>006-015-016-023>025-035-036-302200-
   NORTH CENTRAL IOWA

CITY           SKY/WX    TMP DP  RH WIND       PRES   REMARKS
ALGONA *       CLOUDY    70  54  56 NE7G16    30.20F
CLARION *      CLOUDY    68  55  64 NE7       30.19F
ESTHERVILLE    MOSUNNY   71  51  49 NE7       30.20F
FORT DODGE *   CLOUDY    68  54  60 NE10      30.20F
MASON CITY     CLOUDY    68  53  58 E6        30.21F
FOREST CITY *  CLOUDY    68  54  60 E5        30.20F
WEBSTER CITY * CLOUDY    66  55  68 NE8       30.17F
IOWA FALLS *   CLOUDY    65  55  69 NE7       30.20F
$$

IAZ007>011-017>019-026>030-037>042-050>054-066-302200-
   NORTHEAST IOWA

CITY           SKY/WX    TMP DP  RH WIND       PRES   REMARKS
CEDAR RAPIDS   CLOUDY    63  57  81 NE13      30.15F
CHARLES CITY * CLOUDY    68  55  64 NE9G16    30.20F
CLINTON *      CLOUDY    63  58  83 N12       30.13S
DECORAH *      CLOUDY    61  55  82 NE5       30.19F
DUBUQUE        CLOUDY    59  57  93 N12       30.16F FOG
MONTICELLO *   CLOUDY    63  57  82 N7G18     30.15F
OELWEIN *      CLOUDY    63  55  77 NE12      30.19F
WATERLOO       CLOUDY    63  54  72 NE13      30.18S
$$

IAZ064-065-067-068-078-302200-
   EAST CENTRAL IOWA

CITY           SKY/WX    TMP DP  RH WIND       PRES   REMARKS
DAVENPORT      CLOUDY    66  57  72 N15       30.12F
IOWA CITY      CLOUDY    64  56  75 N8        30.16F
MUSCATINE *    CLOUDY    66  55  68 N9        30.13S
QUAD CITIES    CLOUDY    66  57  72 N8        30.10F
$$

IAZ062-063-075>077-085>089-095>099-302200-
   SOUTHEAST IOWA

CITY           SKY/WX    TMP DP  RH WIND       PRES   REMARKS
BURLINGTON     CLOUDY    65  58  78 N12       30.11F
FAIRFIELD *    CLOUDY    64  55  72 NE15      30.14S
FORT MADISON *   N/A     66  57  72 N9        30.12F
KEOKUK *       CLOUDY    66  57  72 NE10      30.11S
OSKALOOSA *    CLOUDY    63  55  74 N7        30.17S
OTTUMWA        CLOUDY    64  54  69 N9        30.16S
WASHINGTON *     N/A    N/A N/A N/A MISG        N/A
$$

ABBREVIATIONS USED IN REMARKS
   TC - TEMPERATURES IN CELSIUS
  WCI - WIND CHILL INDEX
   HX - HEAT INDEX
  VSB - VISIBILITY
$$





USA.gov is the U.S. government's official web portal to all federal, state and local government web resources and services.